Lapse_Rate
-3.2 -2.0 -1.1 -0.0 0.9 1.7 2.2 2.9 3.5 4.5 4.4 4.6 4.6 4.6 4.8 4.8 4.8 4.9 5.0 5.1 5.5 5.8 6.1 6.4 6.7 7.1 7.9
-2.7 -2.2 -1.1 0.0 0.7 1.6 2.2 2.8 3.3 4.4 4.6 4.8 5.0 5.0 5.2 5.0 5.0 5.1 5.3 5.5 5.6 5.7 5.9 6.0 6.3 6.7 7.7
-2.6 -2.4 -1.4 0.1 0.6 1.6 1.8 2.4 2.9 3.9 4.2 4.3 4.4 4.7 4.9 5.0 4.9 5.0 5.3 5.6 5.9 6.0 6.0 6.2 6.1 6.4 7.1
-1.4 -1.2 -0.5 0.1 0.5 1.2 1.5 1.7 1.7 3.1 3.5 3.7 3.9 4.0 4.3 4.5 4.5 4.9 5.7 6.1 6.6 6.9 7.7 8.4 7.6 7.0 7.2
-0.1 0.0 0.5 1.0 1.7 1.1 1.8 1.4 1.5 2.2 2.6 3.5 3.7 3.9 3.8 3.8 4.3 5.1 5.9 6.5 7.2 8.8 9.1 9.2 9.2 9.3 9.3
0.4 1.2 0.9 1.1 1.3 1.6 1.9 2.2 1.9 2.5 1.7 2.3 3.1 3.1 3.5 4.0 4.7 5.5 6.2 6.7 7.4 8.1 9.2 9.3 9.2 9.4 9.4
-0.8 -0.5 0.2 1.7 1.8 1.9 2.2 2.2 2.3 3.2 2.3 1.6 2.9 2.5 4.0 4.7 4.7 5.8 6.9 7.4 8.1 8.8 8.9 9.1 9.3 9.3 9.2
2.0 1.7 2.7 2.9 3.1 3.2 3.0 2.7 3.0 3.7 3.9 1.7 2.6 3.1 4.5 5.1 4.9 6.9 6.5 6.9 7.3 7.6 7.8 8.1 8.3 8.7 9.1
4.0 4.1 4.7 4.7 4.1 3.4 0.8 0.3 1.5 3.4 3.8 3.1 3.9 3.6 3.5 3.8 5.2 6.6 6.1 6.7 6.8 6.7 6.9 7.3 7.7 8.6 7.2
3.4 3.8 4.1 4.6 4.3 3.9 2.8 1.2 2.6 2.9 4.6 4.4 4.3 4.5 3.7 4.6 5.2 5.8 5.9 6.3 6.0 6.0 6.4 7.0 7.2 6.9 6.8
2.4 2.9 3.6 3.9 3.9 4.0 4.1 3.9 2.9 3.3 6.0 5.6 3.3 3.9 4.0 5.4 4.4 4.8 4.8 4.8 4.9 4.8 5.4 5.9 6.4 7.4 6.9
2.3 2.9 3.2 3.4 3.7 4.1 4.4 4.7 4.9 4.8 5.3 5.5 0.8 3.4 0.9 1.8 4.0 4.5 4.5 4.1 4.6 4.2 4.7 5.4 5.5 6.1 6.5
1.7 2.0 3.3 4.0 4.0 4.5 5.0 5.1 5.0 4.9 5.2 5.3 5.1 4.6 1.4 2.4 3.2 2.7 4.2 3.7 3.9 4.0 4.4 4.8 4.8 5.0 5.0
1.8 1.9 3.7 3.7 3.5 4.8 2.6 3.6 1.1 1.7 4.3 4.5 4.5 4.0 -1.8 1.5 3.0 2.4 3.2 2.6 4.2 3.9 4.2 4.5 4.8 5.2 5.5
2.0 2.6 3.4 3.9 4.3 4.5 3.4 1.7 -0.1 -0.1 0.1 2.1 3.4 3.3 3.2 2.6 -0.0 2.5 3.0 3.3 4.1 4.4 4.9 4.9 5.0 5.5 5.7
2.3 2.7 3.3 3.5 3.3 2.6 2.6 0.3 0.3 1.3 0.7 0.0 0.2 -0.3 -0.2 2.0 4.0 3.1 3.4 4.0 4.5 4.7 5.1 4.9 4.8 5.2 5.7
2.9 2.8 3.1 3.1 4.7 2.2 2.4 2.6 2.1 2.1 2.0 0.9 -0.4 -1.0 1.4 1.8 3.5 5.4 3.8 3.4 4.6 4.2 4.4 4.6 4.7 4.9 5.4
Wind_Speed
1 2 3 6 9 10 10 11 10 9 10 10 10 9 9 10 10 9 9 10 10 11 11 12 13 13 14
2 1 3 4 6 8 8 10 10 9 9 9 10 11 10 10 9 9 9 9 9 10 11 12 12 13 14
3 1 2 2 4 6 7 7 9 9 10 11 10 9 9 9 9 9 8 9 8 9 9 10 11 13 14
4 3 2 3 5 2 3 7 5 6 6 9 9 9 9 10 9 9 9 9 8 8 9 10 10 12 13
3 2 2 2 2 1 2 1 2 6 6 8 9 9 10 11 9 10 9 10 10 9 10 10 9 12 12
2 3 3 3 2 1 1 2 1 3 4 3 5 6 9 11 11 10 10 10 10 11 12 13 10 12 12
5 3 3 3 4 2 1 1 1 2 3 2 3 3 8 14 12 8 6 8 11 12 13 14 14 15 15
11 8 8 8 6 4 3 1 2 4 3 1 1 2 12 16 5 3 8 12 14 15 15 16 17 18 20
10 9 7 6 5 6 1 2 1 1 0 1 2 3 4 7 5 2 11 16 16 15 16 17 18 19 17
9 9 7 7 6 2 5 2 1 2 1 1 2 2 3 3 4 14 18 19 15 19 21 20 20 19 17
6 5 4 3 4 3 2 2 2 2 3 2 0 1 2 3 2 7 16 12 16 20 17 19 16 17 15
2 2 2 2 3 3 3 1 1 3 6 4 2 2 1 2 3 2 10 17 17 14 16 17 18 20 18
2 2 3 4 3 1 1 2 4 7 7 7 6 7 2 3 4 3 6 6 16 13 13 14 13 15 12
2 2 6 4 3 4 2 1 0 3 5 6 7 8 2 3 4 6 6 3 9 14 14 14 14 14 15
2 3 2 2 2 6 3 1 2 2 3 8 12 10 12 10 3 6 6 5 11 11 9 7 12 15 16
2 3 3 3 3 2 2 2 2 2 3 2 2 4 3 6 15 6 5 5 7 8 11 8 8 15 16
4 5 4 3 5 3 3 3 3 3 4 2 2 2 2 4 2 13 4 2 6 7 6 7 9 11 18
Wind_Direction
98 109 76 85 76 75 68 69 59 61 58 59 56 52 46 41 34 24 15 11 7 6 7 5 2 360 356
117 101 92 79 85 82 68 66 55 55 59 59 55 49 41 30 16 8 4 3 4 6 2 0 357 355 353
127 114 95 102 83 83 65 59 58 65 67 56 43 30 15 7 1 1 0 353 352 351 354 353 354 352 348
91 102 107 72 90 108 62 50 53 59 50 33 21 17 13 7 3 3 351 347 334 329 331 339 353 349 346
100 104 102 104 109 100 97 33 44 33 357 358 358 6 10 7 2 347 342 342 338 336 330 342 337 339 336
110 118 112 115 109 102 96 55 13 12 6 318 3 359 3 360 342 338 341 338 339 333 329 327 329 332 325
124 130 129 157 135 112 108 116 205 306 12 297 336 331 342 334 334 333 351 5 2 354 344 335 328 324 321
116 126 122 141 124 128 140 148 282 280 192 254 311 275 319 320 328 60 28 7 352 340 329 324 320 318 316
114 122 121 141 137 128 43 90 310 273 31 160 307 296 297 310 336 322 348 345 343 339 330 322 318 317 321
101 95 92 85 101 115 154 148 168 339 240 341 319 4 331 292 318 337 334 336 327 324 320 318 317 317 313
117 105 85 72 88 99 134 158 155 228 289 29 277 311 212 296 298 300 298 302 307 303 305 311 316 318 318
117 138 148 144 139 97 94 93 223 254 307 320 210 189 214 298 270 285 301 292 291 288 294 300 308 311 311
164 184 181 168 148 140 264 292 300 296 290 288 273 270 185 248 283 290 309 291 294 288 301 299 293 295 296
177 176 150 155 163 193 186 208 355 294 294 301 307 299 257 234 255 276 269 271 303 300 295 293 291 284 279
153 166 169 162 192 198 200 171 195 258 290 296 308 298 275 255 261 255 265 266 273 281 295 299 297 291 284
172 184 190 194 207 204 188 188 218 251 273 273 295 346 332 278 236 253 263 260 277 298 298 292 293 291 290
193 201 200 201 238 190 205 208 251 250 253 236 248 140 261 268 268 273 269 289 300 292 286 281 287 289 294